Lexington, NC

2:07 AM EST on February 10, 2016 (GMT -0500)
Davidson County

Weather History for KEXX - June, 2013

Change the Weather History Date:

Tuesday, June 18, 2013

  Actual Average (KINT) Record (KINT)
Temperature  
Mean Temperature 73 °F -  
Max Temperature 80 °F 82 °F 95 °F (2015)
Min Temperature 66 °F 64 °F 47 °F (1974)
Cooling Degree Days 8    
Growing Degree Days 23 (Base 50)    
Moisture  
Dew Point 69 °F    
Average Humidity 93    
Maximum Humidity 100    
Minimum Humidity 69    
Precipitation  
Precipitation 1.39 in - - ()
Sea Level Pressure  
Sea Level Pressure 29.89 in    
Wind  
Wind Speed 3 mph (SSW)    
Max Wind Speed 9 mph    
Max Gust Speed -    
Visibility 9 miles    
Events Rain    
Averages and records for this station are not official NWS values.
T = Trace of Precipitation, MM = Missing Value Source: NWS Daily Summary

Daily Weather History Graph

Daily Weather History Graph

Search for Another Location

Airport or City:

Trip Planner

Search our weather history database for the weather conditions in past years. The results will help you decide how hot, cold, wet, or windy it might be!

Date:

Astronomy

Jun. 18, 2013 Rise Set
Actual Time 6:04 AM EDT 8:39 PM EDT
Civil Twilight 5:34 AM EDT 9:10 PM EDT
Nautical Twilight 4:57 AM EDT 9:47 PM EDT
Astronomical Twilight 4:15 AM EDT 10:29 PM EDT
Moon 3:30 PM EDT (6/18) 2:03 AM EDT (6/18)
Length of Visible Light 15h 35m
Length of Day
14h 35m
Waxing Gibbous, 70% of the Moon is Illuminated
Jun 18
Waxing Gibbous
Jun 23
Full
Jun 30
Last Quarter
Jul 8
New
Jul 15
First Quarter

Hourly Weather History & Observations

Time (EDT) Temp. Heat Index Dew Point Humidity Pressure Visibility Wind Dir Wind Speed Gust Speed Precip Events Conditions
12:15 AM 70.0 °F - 70.0 °F 100% 29.99 in 10.0 mi South 3.5 mph - N/A   Scattered Clouds
12:35 AM 69.8 °F - 69.8 °F 100% 29.98 in 10.0 mi Calm Calm - N/A   Scattered Clouds
12:55 AM 69.8 °F - 69.8 °F 100% 29.98 in 10.0 mi South 3.5 mph - N/A   Scattered Clouds
1:15 AM 69.8 °F - 69.8 °F 100% 29.97 in 10.0 mi SSE 3.5 mph - N/A   Mostly Cloudy
1:35 AM 69.8 °F - 69.8 °F 100% 29.96 in 10.0 mi South 3.5 mph - N/A   Mostly Cloudy
1:55 AM 70.0 °F - 70.0 °F 100% 29.96 in 10.0 mi South 3.5 mph - N/A   Mostly Cloudy
2:15 AM 69.8 °F - 69.8 °F 100% 29.94 in 10.0 mi South 4.6 mph - N/A Rain Light Rain
2:35 AM 70.0 °F - 70.0 °F 100% 29.93 in 10.0 mi South 3.5 mph - N/A   Overcast
2:55 AM 69.8 °F - 69.8 °F 100% 29.92 in 10.0 mi South 4.6 mph - N/A   Overcast
3:15 AM 70.0 °F - 70.0 °F 100% 29.92 in 10.0 mi SSW 6.9 mph - N/A   Overcast
3:35 AM 69.8 °F - 69.8 °F 100% 29.91 in 10.0 mi South 3.5 mph - N/A   Mostly Cloudy
3:55 AM 69.8 °F - 69.8 °F 100% 29.91 in 10.0 mi South 4.6 mph - N/A   Overcast
4:15 AM 69.8 °F - 69.8 °F 100% 29.91 in 10.0 mi South 4.6 mph - N/A   Overcast
4:35 AM 69.8 °F - 69.8 °F 100% 29.90 in 10.0 mi SSW 3.5 mph - N/A   Overcast
4:55 AM 69.8 °F - 69.8 °F 100% 29.91 in 10.0 mi Calm Calm - N/A   Overcast
5:15 AM 70.0 °F - 70.0 °F 100% 29.91 in 10.0 mi Calm Calm - N/A   Overcast
5:35 AM 70.2 °F - 70.2 °F 100% 29.91 in 10.0 mi SSW 4.6 mph - N/A   Overcast
5:55 AM 70.2 °F - 70.2 °F 100% 29.92 in 10.0 mi SSW 3.5 mph - N/A   Overcast
6:15 AM 70.2 °F - 70.2 °F 100% 29.93 in 10.0 mi South 3.5 mph - N/A   Overcast
6:35 AM 70.3 °F - 70.3 °F 100% 29.93 in 10.0 mi South 3.5 mph - N/A   Overcast
6:55 AM 70.3 °F - 70.3 °F 100% 29.92 in 10.0 mi South 4.6 mph - N/A   Overcast
7:15 AM 70.3 °F - 70.3 °F 100% 29.92 in 7.0 mi Calm Calm - N/A   Overcast
7:35 AM 70.7 °F - 70.7 °F 100% 29.92 in 7.0 mi South 4.6 mph - N/A   Overcast
7:55 AM 70.7 °F - 70.7 °F 100% 29.92 in 10.0 mi South 4.6 mph - N/A   Overcast
8:15 AM 70.7 °F - 70.7 °F 100% 29.92 in 4.0 mi South 4.6 mph - N/A Rain Light Rain
8:35 AM 71.6 °F - 71.6 °F 100% 29.92 in 10.0 mi SSW 4.6 mph - N/A   Mostly Cloudy
8:55 AM 72.0 °F - 72.0 °F 100% 29.92 in 10.0 mi SSW 3.5 mph - N/A   Overcast
9:15 AM 72.7 °F - 70.7 °F 93% 29.92 in 10.0 mi SSW 5.8 mph - N/A   Overcast
9:35 AM 72.5 °F - 70.9 °F 95% 29.92 in 10.0 mi South 4.6 mph - N/A   Overcast
9:55 AM 73.0 °F - 70.2 °F 91% 29.92 in 10.0 mi South 6.9 mph - N/A   Mostly Cloudy
10:15 AM 72.5 °F - 70.5 °F 93% 29.91 in 10.0 mi SSW 4.6 mph - N/A   Overcast
10:35 AM 72.7 °F - 70.0 °F 91% 29.91 in 10.0 mi SW 5.8 mph - N/A   Overcast
10:55 AM 73.6 °F - 70.0 °F 88% 29.91 in 10.0 mi SSW 4.6 mph - N/A   Overcast
11:15 AM 75.2 °F - 70.0 °F 84% 29.90 in 10.0 mi South 3.5 mph - N/A   Mostly Cloudy
11:35 AM 76.8 °F - 70.3 °F 80% 29.90 in 10.0 mi Calm Calm - N/A   Mostly Cloudy
11:55 AM 76.8 °F - 69.4 °F 78% 29.90 in 10.0 mi SW 5.8 mph - N/A   Scattered Clouds
12:15 PM 76.3 °F - 68.9 °F 78% 29.90 in 10.0 mi SW 5.8 mph - N/A   Scattered Clouds
12:35 PM 76.1 °F - 68.9 °F 78% 29.90 in 10.0 mi WSW 6.9 mph - N/A   Scattered Clouds
12:55 PM 76.6 °F - 69.6 °F 79% 29.87 in 10.0 mi West 4.6 mph - N/A   Scattered Clouds
1:15 PM 76.5 °F - 69.8 °F 80% 29.86 in 10.0 mi SSW 4.6 mph - N/A Rain Light Rain
1:35 PM 75.7 °F - 70.3 °F 83% 29.87 in 10.0 mi SSW 4.6 mph - N/A Rain Light Rain
1:55 PM 76.1 °F - 71.4 °F 85% 29.86 in 10.0 mi South 6.9 mph - N/A Rain Light Rain
2:15 PM 76.6 °F - 70.0 °F 80% 29.84 in 10.0 mi SSW 6.9 mph - N/A   Scattered Clouds
2:35 PM 79.0 °F - 70.9 °F 76% 29.84 in 10.0 mi South 8.1 mph - N/A   Clear
2:55 PM 78.4 °F - 69.1 °F 73% 29.83 in 10.0 mi SSW 6.9 mph - N/A   Scattered Clouds
3:15 PM 78.8 °F - 69.6 °F 73% 29.83 in 10.0 mi SSW 8.1 mph - N/A   Scattered Clouds
3:35 PM 80.8 °F 84.1 °F 69.8 °F 69% 29.82 in 10.0 mi WSW 9.2 mph - N/A   Clear
3:55 PM 79.7 °F - 68.5 °F 69% 29.82 in 10.0 mi SW 8.1 mph - N/A   Scattered Clouds
4:15 PM 79.0 °F - 68.2 °F 69% 29.82 in 10.0 mi WSW 5.8 mph - N/A   Scattered Clouds
4:35 PM 78.3 °F - 68.7 °F 72% 29.83 in 10.0 mi Calm Calm - N/A   Clear
4:55 PM 78.8 °F - 69.8 °F 74% 29.83 in 10.0 mi Calm Calm - N/A   Clear
5:15 PM 78.1 °F - 69.3 °F 74% 29.82 in 10.0 mi WSW 3.5 mph - N/A   Clear
5:35 PM 75.7 °F - 70.0 °F 82% 29.82 in 5.0 mi WSW 3.5 mph - 0.01 in Rain Rain
5:55 PM 73.6 °F - 71.2 °F 92% 29.82 in 3.0 mi Calm Calm - 0.05 in Rain Heavy Rain
6:15 PM 72.9 °F - 72.9 °F 100% 29.84 in 10.0 mi Calm Calm - N/A   Scattered Clouds
6:35 PM 69.3 °F - 69.3 °F 100% 29.84 in 10.0 mi Calm Calm - 0.02 in Rain Rain
6:55 PM 68.4 °F - 68.4 °F 100% 29.85 in 1.8 mi Calm Calm - 0.19 in Rain Heavy Rain
7:15 PM 67.5 °F - 67.5 °F 100% 29.86 in 1.2 mi Calm Calm - 0.38 in Rain Heavy Rain
7:35 PM 66.7 °F - 66.7 °F 100% 29.84 in 0.5 mi Calm Calm - 1.08 in Rain Heavy Rain
7:55 PM 67.1 °F - 67.1 °F 100% 29.84 in 2.5 mi Calm Calm - 1.14 in Rain Heavy Rain
8:15 PM 67.5 °F - 67.5 °F 100% 29.83 in 10.0 mi Calm Calm - 0.01 in   Scattered Clouds
8:35 PM 67.3 °F - 67.3 °F 100% 29.83 in 10.0 mi Calm Calm - 0.01 in   Clear
8:55 PM 66.7 °F - 66.7 °F 100% 29.85 in 5.0 mi Calm Calm - 0.01 in   Clear
9:15 PM 66.4 °F - 66.4 °F 100% 29.86 in 10.0 mi Calm Calm - N/A   Scattered Clouds
9:35 PM 66.6 °F - 66.6 °F 100% 29.88 in 10.0 mi Calm Calm - N/A   Mostly Cloudy
9:55 PM 67.1 °F - 67.1 °F 100% 29.89 in 7.0 mi Calm Calm - N/A   Scattered Clouds
10:15 PM 67.1 °F - 67.1 °F 100% 29.90 in 10.0 mi Calm Calm - N/A   Clear
10:35 PM 66.6 °F - 66.6 °F 100% 29.91 in 10.0 mi Calm Calm - N/A   Mostly Cloudy
10:55 PM 66.7 °F - 66.7 °F 100% 29.91 in 10.0 mi Calm Calm - N/A   Scattered Clouds
11:15 PM 67.3 °F - 67.3 °F 100% 29.92 in 10.0 mi Calm Calm - N/A   Scattered Clouds
11:35 PM 67.3 °F - 67.3 °F 100% 29.92 in 10.0 mi Calm Calm - N/A   Scattered Clouds
11:55 PM 67.3 °F - 67.3 °F 100% 29.92 in 7.0 mi Calm Calm - N/A   Scattered Clouds